Location: Huppendorf
(49.9333°N, 11.1500°E)
Time: 04:22:39
(UTC+00:00)

STARLINK-1032 - Pass Details

Date: 27 February 2020
Orbit: 549 x 550 km, 53.0° (Epoch: 09 April)

Event Time Altitude Azimuth Distance (km) Brightness Sun altitude
Rises 18:29:26 0° 262° (W) 2,720 8.7 -16.2°
Reaches altitude 10° 18:31:41 10° 266° (W) 1,827 7.5 -16.6°
Maximum altitude 18:35:49 63° 348° (NNW) 619 3.9 -17.2°
Enters shadow 18:37:37 31° 59° (ENE) 977 4.5 -17.5°
